TimeCST,TemperatureF,Dew PointF,Humidity,Sea Level PressureIn,VisibilityMPH,Wind Direction,Wind SpeedMPH,Gust SpeedMPH,PrecipitationIn,Events,Conditions,WindDirDegrees,DateUTC
12:15 AM,45.5,45.5,100,29.93,1.0,Calm,Calm,-,N/A,,Mostly Cloudy,0,2013-02-24 06:15:00
12:35 AM,46.8,46.8,100,29.92,0.2,NE,3.5,-,N/A,Fog,Fog,50,2013-02-24 06:35:00
12:55 AM,45.3,45.3,100,29.92,0.8,Calm,Calm,-,N/A,,Mist,0,2013-02-24 06:55:00
1:15 AM,45.1,45.1,100,29.91,0.5,NE,3.5,-,N/A,Fog,Fog,40,2013-02-24 07:15:00
1:35 AM,45.1,45.1,100,29.91,0.5,Calm,Calm,-,N/A,Fog,Fog,0,2013-02-24 07:35:00
1:55 AM,44.4,44.4,100,29.90,0.2,Calm,Calm,-,N/A,Fog,Fog,0,2013-02-24 07:55:00
2:15 AM,43.7,43.7,100,29.90,0.2,Calm,Calm,-,N/A,Fog,Fog,0,2013-02-24 08:15:00
2:35 AM,43.9,43.9,100,29.90,0.2,Calm,Calm,-,N/A,Fog,Fog,0,2013-02-24 08:35:00
2:55 AM,43.3,43.3,100,29.89,0.5,Calm,Calm,-,N/A,Fog,Fog,0,2013-02-24 08:55:00
3:15 AM,43.2,43.2,100,29.88,0.5,Calm,Calm,-,N/A,Fog,Fog,0,2013-02-24 09:15:00
3:35 AM,43.2,43.2,100,29.87,0.5,Calm,Calm,-,N/A,Fog,Fog,0,2013-02-24 09:35:00
3:55 AM,43.2,43.2,100,29.87,0.5,Calm,Calm,-,N/A,Fog,Fog,0,2013-02-24 09:55:00
4:15 AM,43.7,43.7,100,29.88,0.2,Calm,Calm,-,N/A,Fog,Fog,0,2013-02-24 10:15:00
4:35 AM,43.7,43.7,100,29.88,0.2,Calm,Calm,-,N/A,Fog,Fog,0,2013-02-24 10:35:00
4:55 AM,42.8,42.8,100,29.88,-9999.0,Calm,Calm,-,N/A,,Unknown,0,2013-02-24 10:55:00
5:15 AM,42.3,42.3,100,29.89,0.5,Calm,Calm,-,N/A,Fog,Fog,0,2013-02-24 11:15:00
5:35 AM,42.3,42.3,100,29.88,0.2,Calm,Calm,-,N/A,Fog,Fog,0,2013-02-24 11:35:00
5:55 AM,41.4,41.4,100,29.89,3.0,Calm,Calm,-,N/A,,Clear,0,2013-02-24 11:55:00
6:15 AM,42.4,42.4,100,29.88,3.0,Calm,Calm,-,N/A,,Clear,0,2013-02-24 12:15:00
6:35 AM,43.2,43.2,100,29.88,2.5,ENE,4.6,-,N/A,,Clear,60,2013-02-24 12:35:00
6:55 AM,43.5,43.5,100,29.88,3.0,ENE,4.6,-,N/A,,Clear,60,2013-02-24 12:55:00
7:15 AM,44.8,44.8,100,29.88,1.8,ENE,5.8,-,N/A,,Mist,60,2013-02-24 13:15:00
7:35 AM,47.3,47.3,100,29.89,2.5,ENE,3.5,-,N/A,,Clear,60,2013-02-24 13:35:00
7:55 AM,51.1,51.1,100,29.90,3.0,Calm,Calm,-,N/A,,Clear,0,2013-02-24 13:55:00
8:15 AM,53.4,53.4,100,29.90,4.0,NE,3.5,-,N/A,,Clear,50,2013-02-24 14:15:00
8:35 AM,55.0,55.0,100,29.90,5.0,ENE,4.6,-,N/A,,Clear,70,2013-02-24 14:35:00
8:55 AM,58.1,58.1,100,29.90,10.0,East,8.1,-,N/A,,Clear,90,2013-02-24 14:55:00
9:15 AM,60.6,60.6,100,29.91,10.0,East,9.2,-,N/A,,Clear,80,2013-02-24 15:15:00
9:35 AM,61.2,61.2,100,29.90,10.0,East,9.2,-,N/A,,Clear,90,2013-02-24 15:35:00
9:55 AM,63.1,63.1,100,29.91,10.0,East,8.1,-,N/A,,Scattered Clouds,100,2013-02-24 15:55:00
10:15 AM,65.3,63.7,94,29.90,10.0,East,11.5,20.7,N/A,,Mostly Cloudy,100,2013-02-24 16:15:00
10:35 AM,67.6,60.6,78,29.90,10.0,East,17.3,-,N/A,,Mostly Cloudy,100,2013-02-24 16:35:00
10:55 AM,69.1,59.0,70,29.89,10.0,East,13.8,18.4,N/A,,Mostly Cloudy,100,2013-02-24 16:55:00
11:15 AM,69.3,58.6,69,29.89,10.0,ESE,13.8,-,N/A,,Scattered Clouds,110,2013-02-24 17:15:00
11:35 AM,70.0,58.6,67,29.88,10.0,East,13.8,19.6,N/A,,Mostly Cloudy,90,2013-02-24 17:35:00
11:55 AM,70.2,58.6,67,29.87,10.0,East,10.4,-,N/A,,Mostly Cloudy,100,2013-02-24 17:55:00
12:15 PM,71.6,59.0,64,29.85,10.0,ESE,9.2,16.1,N/A,,Scattered Clouds,110,2013-02-24 18:15:00
12:35 PM,71.8,58.8,64,29.85,10.0,East,11.5,18.4,N/A,,Mostly Cloudy,100,2013-02-24 18:35:00
12:55 PM,70.2,58.6,67,29.84,10.0,East,11.5,18.4,N/A,,Overcast,100,2013-02-24 18:55:00
1:15 PM,68.9,58.8,70,29.82,10.0,East,11.5,17.3,N/A,,Overcast,100,2013-02-24 19:15:00
1:35 PM,69.4,59.2,70,29.80,10.0,East,15.0,-,N/A,,Mostly Cloudy,90,2013-02-24 19:35:00
1:55 PM,69.1,58.8,70,29.80,10.0,East,13.8,18.4,N/A,,Mostly Cloudy,100,2013-02-24 19:55:00
2:15 PM,67.8,58.8,73,29.79,10.0,ESE,11.5,-,N/A,,Overcast,110,2013-02-24 20:15:00
2:35 PM,67.3,58.8,74,29.78,10.0,East,10.4,-,N/A,,Overcast,90,2013-02-24 20:35:00
2:55 PM,66.7,58.6,75,29.77,10.0,East,11.5,16.1,N/A,,Overcast,90,2013-02-24 20:55:00
3:15 PM,66.0,58.5,77,29.76,10.0,ENE,13.8,18.4,N/A,,Overcast,70,2013-02-24 21:15:00
3:35 PM,65.7,58.8,79,29.75,10.0,ENE,12.7,-,N/A,,Overcast,70,2013-02-24 21:35:00
3:55 PM,65.5,58.8,79,29.74,10.0,ENE,10.4,-,N/A,,Overcast,70,2013-02-24 21:55:00
4:15 PM,65.5,59.0,80,29.74,10.0,East,9.2,-,N/A,,Overcast,80,2013-02-24 22:15:00
4:35 PM,65.1,59.0,81,29.74,10.0,East,12.7,18.4,N/A,,Overcast,90,2013-02-24 22:35:00
4:55 PM,64.4,59.0,83,29.74,10.0,East,12.7,-,N/A,,Overcast,90,2013-02-24 22:55:00
5:15 PM,64.0,59.4,85,29.74,7.0,East,10.4,-,N/A,,Overcast,90,2013-02-24 23:15:00
5:35 PM,63.7,59.9,87,29.74,10.0,East,12.7,-,N/A,,Overcast,80,2013-02-24 23:35:00
5:55 PM,63.3,60.8,91,29.73,10.0,East,11.5,-,N/A,,Overcast,80,2013-02-24 23:55:00
6:15 PM,62.8,62.2,98,29.73,10.0,ENE,9.2,-,N/A,,Overcast,70,2013-02-25 00:15:00
6:35 PM,62.6,62.6,100,29.74,10.0,East,8.1,-,N/A,,Overcast,80,2013-02-25 00:35:00
6:55 PM,62.2,62.2,100,29.72,10.0,ENE,10.4,-,N/A,,Overcast,70,2013-02-25 00:55:00
7:15 PM,62.1,62.1,100,29.72,10.0,ENE,11.5,-,N/A,,Overcast,70,2013-02-25 01:15:00
7:35 PM,61.7,61.7,100,29.72,10.0,ENE,9.2,16.1,N/A,,Overcast,70,2013-02-25 01:35:00
7:55 PM,61.7,61.7,100,29.71,10.0,ENE,8.1,-,N/A,,Overcast,60,2013-02-25 01:55:00
8:15 PM,61.7,61.7,100,29.71,10.0,ENE,8.1,-,N/A,,Overcast,60,2013-02-25 02:15:00
8:35 PM,61.7,61.7,100,29.71,10.0,ENE,9.2,-,N/A,,Overcast,70,2013-02-25 02:35:00
8:55 PM,61.9,61.9,100,29.71,10.0,East,8.1,-,N/A,,Overcast,80,2013-02-25 02:55:00
9:15 PM,62.2,62.2,100,29.70,10.0,ENE,6.9,-,N/A,,Overcast,70,2013-02-25 03:15:00
9:35 PM,62.6,62.6,100,29.70,10.0,East,9.2,-,N/A,,Overcast,80,2013-02-25 03:35:00
9:55 PM,62.8,62.8,100,29.71,10.0,ENE,6.9,-,N/A,,Overcast,60,2013-02-25 03:55:00
10:15 PM,62.8,62.8,100,29.71,10.0,ENE,5.8,-,N/A,,Overcast,60,2013-02-25 04:15:00
10:35 PM,62.8,62.8,100,29.71,10.0,ENE,6.9,-,N/A,,Overcast,60,2013-02-25 04:35:00
10:55 PM,62.8,62.8,100,29.70,10.0,East,6.9,-,N/A,,Overcast,80,2013-02-25 04:55:00
11:15 PM,62.8,62.8,100,29.68,7.0,East,8.1,-,N/A,,Overcast,90,2013-02-25 05:15:00
11:35 PM,62.8,62.8,100,29.67,7.0,ENE,9.2,-,N/A,,Overcast,70,2013-02-25 05:35:00
11:55 PM,62.8,62.8,100,29.65,5.0,East,9.2,-,N/A,,Overcast,80,2013-02-25 05:55:00